Time,TemperatureF,DewpointF,PressureIn,WindDirection,WindDirectionDegrees,WindSpeedMPH,WindSpeedGustMPH,Humidity,HourlyPrecipIn,Conditions,Clouds,dailyrainin,SoftwareType,DateUTC
2013-11-12 00:06:00,58.6,49.6,30.03,North,0,0.0,-999.0,72,0.00,,,0.00,open2300 v1.10,2013-11-12 08:06:00,
2013-11-12 00:21:00,58.6,49.6,30.03,North,0,0.0,-999.0,72,0.00,,,0.00,open2300 v1.10,2013-11-12 08:21:00,
2013-11-12 00:36:00,58.6,49.6,30.03,North,0,0.0,-999.0,72,0.00,,,0.00,open2300 v1.10,2013-11-12 08:36:00,
2013-11-12 00:51:00,58.6,49.6,30.03,North,0,0.0,-999.0,72,0.00,,,0.00,open2300 v1.10,2013-11-12 08:51:00,
2013-11-12 01:06:00,58.8,49.8,30.04,North,0,0.0,-999.0,72,0.00,,,0.00,open2300 v1.10,2013-11-12 09:06:00,
2013-11-12 01:21:00,58.8,49.1,30.04,North,0,0.0,-999.0,70,0.00,,,0.00,open2300 v1.10,2013-11-12 09:21:00,
2013-11-12 01:36:00,58.6,48.9,30.05,North,0,0.0,-999.0,70,0.00,,,0.00,open2300 v1.10,2013-11-12 09:36:00,
2013-11-12 01:51:00,58.8,49.1,30.07,North,0,0.0,-999.0,70,0.00,,,0.00,open2300 v1.10,2013-11-12 09:51:00,
2013-11-12 02:06:00,58.8,48.7,30.05,North,0,0.0,-999.0,69,0.00,,,0.00,open2300 v1.10,2013-11-12 10:06:00,
2013-11-12 02:21:00,58.3,48.6,30.06,North,0,0.0,-999.0,70,0.00,,,0.00,open2300 v1.10,2013-11-12 10:21:00,
2013-11-12 02:36:00,58.1,48.4,30.04,North,0,0.0,-999.0,70,0.00,,,0.00,open2300 v1.10,2013-11-12 10:36:00,
2013-11-12 02:51:00,58.3,48.9,30.06,North,0,0.0,-999.0,71,0.00,,,0.00,open2300 v1.10,2013-11-12 10:51:00,
2013-11-12 03:06:00,58.3,48.9,30.05,North,0,0.0,-999.0,71,0.00,,,0.00,open2300 v1.10,2013-11-12 11:06:00,
2013-11-12 03:21:00,58.3,49.3,30.07,North,0,0.0,-999.0,72,0.00,,,0.00,open2300 v1.10,2013-11-12 11:21:00,
2013-11-12 03:36:00,58.3,49.3,30.07,North,0,0.0,-999.0,72,0.00,,,0.00,open2300 v1.10,2013-11-12 11:36:00,
2013-11-12 03:51:00,58.1,49.1,30.07,North,0,0.0,-999.0,72,0.00,,,0.00,open2300 v1.10,2013-11-12 11:51:00,
2013-11-12 04:06:00,58.1,48.7,30.08,North,0,0.0,-999.0,71,0.00,,,0.00,open2300 v1.10,2013-11-12 12:06:00,
2013-11-12 04:21:00,58.1,48.7,30.09,North,0,0.0,-999.0,71,0.00,,,0.00,open2300 v1.10,2013-11-12 12:21:00,
2013-11-12 04:36:00,58.1,48.7,30.09,North,0,0.0,-999.0,71,0.00,,,0.00,open2300 v1.10,2013-11-12 12:36:00,
2013-11-12 04:51:00,58.1,48.7,30.09,North,0,0.0,-999.0,71,0.00,,,0.00,open2300 v1.10,2013-11-12 12:51:00,
2013-11-12 05:06:00,58.1,49.1,30.09,North,0,0.0,-999.0,72,0.00,,,0.00,open2300 v1.10,2013-11-12 13:06:00,
2013-11-12 05:21:00,58.1,49.3,30.10,North,0,0.0,-999.0,72,0.00,,,0.00,open2300 v1.10,2013-11-12 13:21:00,
2013-11-12 05:36:00,58.1,49.5,30.09,North,0,0.0,-999.0,73,0.00,,,0.00,open2300 v1.10,2013-11-12 13:36:00,
2013-11-12 05:51:00,58.1,49.5,30.10,North,0,0.0,-999.0,73,0.00,,,0.00,open2300 v1.10,2013-11-12 13:51:00,
2013-11-12 06:06:00,58.3,49.6,30.09,North,0,0.0,-999.0,73,0.00,,,0.00,open2300 v1.10,2013-11-12 14:06:00,
2013-11-12 06:21:00,58.3,49.6,30.09,North,0,0.0,-999.0,73,0.00,,,0.00,open2300 v1.10,2013-11-12 14:21:00,
2013-11-12 06:36:00,58.3,49.6,30.08,North,0,0.0,-999.0,73,0.00,,,0.00,open2300 v1.10,2013-11-12 14:36:00,
2013-11-12 06:51:00,58.3,50.0,30.08,North,0,0.0,-999.0,74,0.00,,,0.00,open2300 v1.10,2013-11-12 14:51:00,
2013-11-12 07:06:00,58.3,50.0,30.08,North,0,0.0,-999.0,74,0.00,,,0.00,open2300 v1.10,2013-11-12 15:06:00,
2013-11-12 07:21:00,58.3,50.7,30.09,North,0,0.0,-999.0,76,0.00,,,0.00,open2300 v1.10,2013-11-12 15:21:00,
2013-11-12 07:36:00,58.6,51.1,30.09,North,0,0.0,-999.0,76,0.00,,,0.00,open2300 v1.10,2013-11-12 15:36:00,
2013-11-12 07:51:00,58.8,51.3,30.09,North,0,0.0,-999.0,76,0.00,,,0.00,open2300 v1.10,2013-11-12 15:51:00,
2013-11-12 08:06:00,58.8,51.3,30.11,North,0,0.0,-999.0,76,0.00,,,0.00,open2300 v1.10,2013-11-12 16:06:00,
2013-11-12 08:21:00,59.5,52.0,30.12,North,0,0.0,-999.0,76,0.00,,,0.00,open2300 v1.10,2013-11-12 16:21:00,
2013-11-12 08:36:00,60.4,52.9,30.12,North,0,0.0,-999.0,76,0.00,,,0.00,open2300 v1.10,2013-11-12 16:36:00,
2013-11-12 08:51:00,60.8,52.9,30.13,North,0,0.0,-999.0,75,0.00,,,0.00,open2300 v1.10,2013-11-12 16:51:00,
2013-11-12 09:06:00,61.3,52.7,30.13,North,0,0.0,-999.0,73,0.00,,,0.00,open2300 v1.10,2013-11-12 17:06:00,
2013-11-12 09:21:00,61.9,52.8,30.12,North,0,0.0,-999.0,72,0.00,,,0.00,open2300 v1.10,2013-11-12 17:21:00,
2013-11-12 09:36:00,62.4,52.5,30.13,North,0,0.0,-999.0,70,0.00,,,0.00,open2300 v1.10,2013-11-12 17:36:00,
2013-11-12 09:51:00,63.1,52.8,30.13,North,0,0.0,-999.0,69,0.00,,,0.00,open2300 v1.10,2013-11-12 17:51:00,
2013-11-12 10:06:00,63.5,51.9,30.14,North,0,0.0,-999.0,66,0.00,,,0.00,open2300 v1.10,2013-11-12 18:06:00,
2013-11-12 10:21:00,64.0,52.0,30.14,North,0,0.0,-999.0,65,0.00,,,0.00,open2300 v1.10,2013-11-12 18:21:00,
2013-11-12 10:36:00,64.8,51.8,30.14,North,0,0.0,-999.0,63,0.00,,,0.00,open2300 v1.10,2013-11-12 18:36:00,
2013-11-12 10:51:00,65.5,52.1,30.14,North,0,0.0,-999.0,62,0.00,,,0.00,open2300 v1.10,2013-11-12 18:51:00,
2013-11-12 11:06:00,66.0,51.8,30.13,North,0,0.0,-999.0,60,0.00,,,0.00,open2300 v1.10,2013-11-12 19:06:00,
2013-11-12 11:21:00,66.0,51.3,30.12,North,0,0.0,-999.0,59,0.00,,,0.00,open2300 v1.10,2013-11-12 19:21:00,
2013-11-12 11:36:00,66.0,50.8,30.12,North,0,0.0,-999.0,58,0.00,,,0.00,open2300 v1.10,2013-11-12 19:36:00,
2013-11-12 11:51:00,66.0,50.8,30.11,North,0,0.0,-999.0,58,0.00,,,0.00,open2300 v1.10,2013-11-12 19:51:00,
2013-11-12 12:06:00,66.0,50.8,30.11,North,0,0.0,-999.0,58,0.00,,,0.00,open2300 v1.10,2013-11-12 20:06:00,
2013-11-12 12:21:00,65.8,50.2,30.10,North,0,0.0,-999.0,57,0.00,,,0.00,open2300 v1.10,2013-11-12 20:21:00,
2013-11-12 12:36:00,65.7,50.0,30.10,North,0,0.0,-999.0,57,0.00,,,0.00,open2300 v1.10,2013-11-12 20:36:00,
2013-11-12 12:51:00,66.0,50.8,30.09,North,0,0.0,-999.0,58,0.00,,,0.00,open2300 v1.10,2013-11-12 20:51:00,
2013-11-12 13:06:00,66.7,51.0,30.09,North,0,0.0,-999.0,57,0.00,,,0.00,open2300 v1.10,2013-11-12 21:06:00,
2013-11-12 13:21:00,67.3,50.5,30.08,North,0,0.0,-999.0,55,0.00,,,0.00,open2300 v1.10,2013-11-12 21:21:00,
2013-11-12 13:36:00,67.3,49.1,30.08,North,0,0.0,-999.0,52,0.00,,,0.00,open2300 v1.10,2013-11-12 21:36:00,
2013-11-12 13:51:00,67.3,48.6,30.08,North,0,0.0,-999.0,51,0.00,,,0.00,open2300 v1.10,2013-11-12 21:51:00,
2013-11-12 14:06:00,67.3,48.1,30.08,North,0,0.0,-999.0,50,0.00,,,0.00,open2300 v1.10,2013-11-12 22:06:00,
2013-11-12 14:21:00,67.6,49.4,30.08,North,0,0.0,-999.0,52,0.00,,,0.00,open2300 v1.10,2013-11-12 22:21:00,
2013-11-12 14:36:00,67.5,50.2,30.08,North,0,0.0,-999.0,54,0.00,,,0.00,open2300 v1.10,2013-11-12 22:36:00,
2013-11-12 14:51:00,67.6,50.8,30.08,North,0,0.0,-999.0,55,0.00,,,0.00,open2300 v1.10,2013-11-12 22:51:00,
2013-11-12 15:06:00,68.0,51.2,30.08,North,0,0.0,-999.0,55,0.00,,,0.00,open2300 v1.10,2013-11-12 23:06:00,
2013-11-12 15:21:00,68.2,50.8,30.07,North,0,0.0,-999.0,54,0.00,,,0.00,open2300 v1.10,2013-11-12 23:21:00,
2013-11-12 15:36:00,68.5,52.2,30.07,North,0,0.0,-999.0,56,0.00,,,0.00,open2300 v1.10,2013-11-12 23:36:00,
2013-11-12 15:51:00,68.7,52.3,30.07,North,0,0.0,-999.0,56,0.00,,,0.00,open2300 v1.10,2013-11-12 23:51:00,
2013-11-12 16:06:00,68.9,52.5,30.07,North,0,0.0,-999.0,56,0.00,,,0.00,open2300 v1.10,2013-11-13 00:06:00,
2013-11-12 16:21:00,68.9,52.5,30.07,North,0,0.0,-999.0,56,0.00,,,0.00,open2300 v1.10,2013-11-13 00:21:00,
2013-11-12 16:36:00,68.5,52.7,30.07,North,0,0.0,-999.0,57,0.00,,,0.00,open2300 v1.10,2013-11-13 00:36:00,
2013-11-12 16:51:00,67.3,52.5,30.07,North,0,0.0,-999.0,59,0.00,,,0.00,open2300 v1.10,2013-11-13 00:51:00,
2013-11-12 17:06:00,66.0,52.2,30.08,North,0,0.0,-999.0,61,0.00,,,0.00,open2300 v1.10,2013-11-13 01:06:00,
2013-11-12 17:21:00,65.1,51.8,30.08,North,0,0.0,-999.0,62,0.00,,,0.00,open2300 v1.10,2013-11-13 01:21:00,
2013-11-12 17:36:00,64.6,51.6,30.08,North,0,0.0,-999.0,63,0.00,,,0.00,open2300 v1.10,2013-11-13 01:36:00,
2013-11-12 17:51:00,64.2,51.7,30.08,North,0,0.0,-999.0,64,0.00,,,0.00,open2300 v1.10,2013-11-13 01:51:00,
2013-11-12 18:06:00,63.7,51.2,30.08,North,0,0.0,-999.0,64,0.00,,,0.00,open2300 v1.10,2013-11-13 02:06:00,
2013-11-12 18:21:00,63.5,51.5,30.09,North,0,0.0,-999.0,65,0.00,,,0.00,open2300 v1.10,2013-11-13 02:21:00,
2013-11-12 18:36:00,63.3,51.3,30.09,North,0,0.0,-999.0,65,0.00,,,0.00,open2300 v1.10,2013-11-13 02:36:00,
2013-11-12 18:51:00,63.3,51.7,30.09,North,0,0.0,-999.0,66,0.00,,,0.00,open2300 v1.10,2013-11-13 02:51:00,
2013-11-12 19:06:00,63.3,51.3,30.10,North,0,0.0,-999.0,65,0.00,,,0.00,open2300 v1.10,2013-11-13 03:06:00,
2013-11-12 19:21:00,63.3,51.3,30.10,North,0,0.0,-999.0,65,0.00,,,0.00,open2300 v1.10,2013-11-13 03:21:00,
2013-11-12 19:36:00,63.0,51.4,30.11,North,0,0.0,-999.0,66,0.00,,,0.00,open2300 v1.10,2013-11-13 03:36:00,
2013-11-12 19:51:00,62.4,51.3,30.11,North,0,0.0,-999.0,67,0.00,,,0.00,open2300 v1.10,2013-11-13 03:51:00,
2013-11-12 20:06:00,62.2,51.5,30.11,North,0,0.0,-999.0,68,0.00,,,0.00,open2300 v1.10,2013-11-13 04:06:00,
2013-11-12 20:21:00,62.1,51.8,30.11,North,0,0.0,-999.0,69,0.00,,,0.00,open2300 v1.10,2013-11-13 04:21:00,
2013-11-12 20:36:00,61.7,51.9,30.11,North,0,0.0,-999.0,70,0.00,,,0.00,open2300 v1.10,2013-11-13 04:36:00,
2013-11-12 20:51:00,61.5,51.7,30.11,North,0,0.0,-999.0,70,0.00,,,0.00,open2300 v1.10,2013-11-13 04:51:00,
2013-11-12 21:06:00,61.5,51.7,30.11,North,0,0.0,-999.0,70,0.00,,,0.00,open2300 v1.10,2013-11-13 05:06:00,
2013-11-12 21:21:00,61.5,51.7,30.11,North,0,0.0,-999.0,70,0.00,,,0.00,open2300 v1.10,2013-11-13 05:21:00,
2013-11-12 21:36:00,61.3,51.9,30.12,North,0,0.0,-999.0,71,0.00,,,0.00,open2300 v1.10,2013-11-13 05:36:00,
2013-11-12 21:51:00,61.0,52.0,30.12,North,0,0.0,-999.0,72,0.00,,,0.00,open2300 v1.10,2013-11-13 05:51:00,
2013-11-12 22:06:00,61.0,52.0,30.12,North,0,0.0,-999.0,72,0.00,,,0.00,open2300 v1.10,2013-11-13 06:06:00,
2013-11-12 22:21:00,61.0,52.3,30.12,North,0,0.0,-999.0,73,0.00,,,0.00,open2300 v1.10,2013-11-13 06:21:00,
2013-11-12 22:36:00,60.4,52.2,30.12,North,0,0.0,-999.0,74,0.00,,,0.00,open2300 v1.10,2013-11-13 06:36:00,
2013-11-12 22:51:00,59.7,51.8,30.12,North,0,0.0,-999.0,75,0.00,,,0.00,open2300 v1.10,2013-11-13 06:51:00,
2013-11-12 23:06:00,58.8,51.6,30.12,North,0,0.0,-999.0,77,0.00,,,0.00,open2300 v1.10,2013-11-13 07:06:00,
2013-11-12 23:21:00,58.8,52.3,30.12,North,0,0.0,-999.0,79,0.00,,,0.00,open2300 v1.10,2013-11-13 07:21:00,
2013-11-12 23:36:00,58.5,52.0,30.11,North,0,0.0,-999.0,79,0.00,,,0.00,open2300 v1.10,2013-11-13 07:36:00,
2013-11-12 23:51:00,58.6,52.2,30.12,North,0,0.0,-999.0,79,0.00,,,0.00,open2300 v1.10,2013-11-13 07:51:00,